Regional Weather Roundup
Issued by NWS

Home | Current Version | Previous Version | Text Only | Print | Product List | Glossary On
Versions: 1 2 3 4 5 6 7 8 9 10 11 12 13 14 15 16 17 18 19 20 21 22 23 24 25 26 27 28 29 30 31 32 33 34 35 36 37 38 39 40 41 42 43 44 45 46 47 48 49 50
000
ASUS46 KSTO 290315
RWRCA

NORTHERN AND CENTRAL CA REGIONAL WEATHER ROUNDUP
NATIONAL WEATHER SERVICE SACRAMENTO CA
800 PM PDT WED JUN 28 2017

NOTE: FAIR INDICATES FEW OR NO CLOUDS BELOW 12,000 FEET WITH NO
SIGNIFICANT WEATHER AND/OR OBSTRUCTIONS TO VISIBILITY.

CAZ001-003-290400-
NORTHWEST AREA

CITY           SKY/WX    TMP DP  RH WIND       PRES   REMARKS
CRESCENT CITY  CLEAR     54  51  90 NW7       29.99S FOG
UKIAH          CLEAR     81  36  19 W6        29.86R
$$

CAZ006-505>513-290400-
BAY AREA

CITY           SKY/WX    TMP DP  RH WIND       PRES   REMARKS
SANTA ROSA     CLEAR     65  52  62 SE8       29.86R
SAN RAFAEL     N/A       75  MM  MM MISG
NAPA           CLEAR     66  57  72 S12       29.87S
CONCORD        CLEAR     71  53  52 S16       29.86R
OAKLAND CITY   N/A      MM  MM  MM MISG
OAKLAND        PTCLDY    62  54  74 W10       29.93R
SAN FRAN CITY  N/A       58  MM  80 MISG
SAN FRAN ARPT  PTCLDY    59  51  75 W13       29.92R
LIVERMORE      CLEAR     67  51  56 W12       29.88R
HAYWARD        PTCLDY    62  52  69 W12       29.92S
REDWOOD CITY   N/A       67  MM  59 MISG
MOFFETT ARPT   CLEAR     63  57  81 N12       29.93R
SAN JOSE ARPT  CLEAR     66  55  67 W13       29.91R
$$
CAZ034-037-514>518-290400-
CENTRAL COAST

CITY           SKY/WX    TMP DP  RH WIND       PRES   REMARKS
WATSONVILLE    CLEAR     60  56  86 SE8       29.93R
SALINAS        CLOUDY    57  53  86 W12       29.94R
MONTEREY       CLOUDY    57  53  86 SW10      29.96R
SAN LUIS OBISP CLEAR     58  52  80 NW15      29.90R
SANTA MARIA    MOCLDY    56  54  93 NW13      29.92R FOG
$$
CAZ015-016-290400-
NORTHERN SACRAMENTO VALLEY

CITY           SKY/WX    TMP DP  RH WIND       PRES   REMARKS
REDDING        CLEAR     90  56  31 SE8       29.78R
RED BLUFF      CLEAR     90  58  33 S10       29.79R
OROVILLE       CLEAR     89  55  31 S7        29.80R
$$
CAZ016>018-290400-
SOUTHERN SACRAMENTO VALLEY

CITY           SKY/WX    TMP DP  RH WIND       PRES   REMARKS
AUBURN         CLEAR     84  50  30 W3        29.89R
BEALE AFB      CLEAR     88  60  38 S6        29.78S
LINCOLN        FAIR      88  52  29 SW6       29.79R
MARYSVILLE     CLEAR     88  57  34 S8        29.79S
SAC INTL ARPT  CLEAR     82  61  48 S10       29.79S
MATHER AIRPORT CLEAR     82  57  42 S10       29.81
DOWNTOWN SAC   N/A       80  MM  MM MISG
SAC EXEC ARPT  CLEAR     77  57  50 SW8       29.81R
VACAVILLE      CLEAR     83  57  41 SW8       29.80S
TRAVIS AFB     CLEAR     71  55  55 SW24      29.79S
$$
CAZ019>021-290400-
SAN JOAQUIN VALLEY

CITY           SKY/WX    TMP DP  RH WIND       PRES   REMARKS
STOCKTON       CLEAR     82  51  34 W15G21    29.82R
MODESTO        CLEAR     87  59  38 NW13      29.80R
MERCED         CLEAR     87  53  31 NW10      29.79S
LEMOORE        CLEAR     87  46  24 N13       29.80R
FRESNO         PTCLDY    88  52  29 NW13      29.80R
HANFORD        CLEAR     88  48  25 NW9       29.80R
PORTERVILLE      N/A     89  53  29 NW7       29.80S
BAKERSFIELD    CLEAR     91  49  23 N6        29.79S
$$
CAZ011-012-071-290400-
NORTHERN MOUNTAINS

CITY           SKY/WX    TMP DP  RH WIND       PRES   REMARKS
YREKA          CLEAR     77  34  21 NE13      29.96R
MOUNT SHASTA   CLEAR     76  35  22 VRB3      29.97R
ALTURAS        CLEAR     76  14   9 NW15      30.00R
$$
CAZ011-012-071-290400-
SIERRA NEVADA MTNS

CITY           SKY/WX    TMP DP  RH WIND       PRES   REMARKS
BLUE CANYON    CLEAR     68  46  45 CALM      30.13R
TRUCKEE        CLEAR     68  37  32 W7        30.14R
TAHOE VLY ARPT CLEAR     65  35  33 SW3       30.15R
MAMMOTH LAKES  FAIR      70  39  32 NW12      30.17R
$$



USA.gov is the U.S. government's official web portal to all federal, state and local government web resources and services.